When you browse on this site, cookies collect data to enhance your experience and personalize the content and advertising you see.
Visit our Privacy Policy to learn more. By continuing to use the site, you agree to this use of cookies and data.
  • In France
  • List of Countries
  • For 7 days
  • Water Temperature
  • Weather Map
  • Weather Widgets
  • user-avatar
    Login

    Hourly Weather Bukittinggi

    Today, 31 May, Sunday

    Time Temperature Precipitation Wind Pressure Humidity
    00:00 +20°C° 2.5 mm 0 mps 682 mmHg 97%
    01:00 +20°C° 0 mm 0 mps 682 mmHg 97%
    02:00 +19°C° 3.7 mm 0 mps 682 mmHg 97%
    03:00 +19°C° 3.7 mm 0 mps 682 mmHg 98%
    04:00 +19°C° 3.7 mm 0 mps 681 mmHg 99%
    05:00 +19°C° 3 mm 0 mps 682 mmHg 99%
    06:00 +19°C° 3 mm 0 mps 682 mmHg 99%
    07:00 +19°C° 3 mm 0 mps 683 mmHg 98%
    08:00 +20°C° 1.1 mm 0 mps 683 mmHg 96%
    09:00 +21°C° 1.1 mm 0 mps 684 mmHg 93%
    10:00 +22°C° 1.1 mm 0 mps 684 mmHg 91%
    11:00 +25°C° 1.2 mm 1 mps 684 mmHg 89%
    12:00 +25°C° 1.2 mm 1 mps 683 mmHg 87%
    13:00 +26°C° 1.2 mm 1 mps 683 mmHg 85%
    14:00 +25°C° 1.9 mm 1 mps 682 mmHg 87%
    15:00 +25°C° 1.9 mm 1 mps 682 mmHg 89%
    16:00 +24°C° 1.9 mm 1 mps 681 mmHg 92%
    17:00 +24°C° 0.7 mm 1 mps 681 mmHg 94%
    18:00 +23°C° 0.7 mm 1 mps 682 mmHg 95%
    19:00 +22°C° 0.7 mm 1 mps 682 mmHg 97%
    20:00 +20°C° 0.4 mm 0 mps 682 mmHg 97%
    21:00 +19°C° 0.4 mm 0 mps 683 mmHg 96%
    22:00 +19°C° 0.4 mm 0 mps 683 mmHg 96%
    23:00 +21°C° 0.9 mm 1 mps 683 mmHg 96%

    Tomorrow, 1 June, Monday

    Time Temperature Precipitation Wind Pressure Humidity
    00:00 +21°C° 0.9 mm 1 mps 683 mmHg 96%
    01:00 +20°C° 0.9 mm 1 mps 682 mmHg 95%
    02:00 +20°C° 0.2 mm 1 mps 682 mmHg 95%
    03:00 +20°C° 0.2 mm 1 mps 682 mmHg 94%
    04:00 +19°C° 0.2 mm 1 mps 681 mmHg 93%
    05:00 +20°C° 0 mm 1 mps 681 mmHg 92%
    06:00 +20°C° 0 mm 1 mps 682 mmHg 91%
    07:00 +20°C° 0 mm 1 mps 682 mmHg 90%
    08:00 +21°C° 0 mm 0 mps 683 mmHg 78%
    09:00 +24°C° 0 mm 0 mps 684 mmHg 65%
    10:00 +27°C° 0 mm 0 mps 685 mmHg 53%
    11:00 +27°C° 0 mm 0 mps 684 mmHg 54%
    12:00 +27°C° 0 mm 0 mps 684 mmHg 55%
    13:00 +29°C° 0 mm 1 mps 683 mmHg 56%
    14:00 +29°C° 0 mm 1 mps 682 mmHg 59%
    15:00 +28°C° 0 mm 1 mps 682 mmHg 61%
    16:00 +28°C° 0 mm 1 mps 681 mmHg 64%
    17:00 +26°C° 0.2 mm 1 mps 681 mmHg 74%
    18:00 +22°C° 0.2 mm 0 mps 681 mmHg 84%
    19:00 +20°C° 0.2 mm 0 mps 681 mmHg 93%
    20:00 +20°C° 0.1 mm 0 mps 682 mmHg 93%
    21:00 +20°C° 0.1 mm 0 mps 682 mmHg 92%
    22:00 +19°C° 0.1 mm 0 mps 682 mmHg 92%
    23:00 +19°C° 0.6 mm 0 mps 682 mmHg 92%

    Day after tomorrow, 2 June, Tuesday

    Time Temperature Precipitation Wind Pressure Humidity
    00:00 +19°C° 0.6 mm 0 mps 682 mmHg 92%
    01:00 +19°C° 0.6 mm 0 mps 682 mmHg 92%
    02:00 +19°C° 0.1 mm 0 mps 681 mmHg 92%
    03:00 +19°C° 0.1 mm 0 mps 681 mmHg 92%
    04:00 +19°C° 0.1 mm 0 mps 680 mmHg 92%
    05:00 +19°C° 0.1 mm 0 mps 681 mmHg 91%
    06:00 +19°C° 0.1 mm 0 mps 681 mmHg 91%
    07:00 +19°C° 0.1 mm 0 mps 682 mmHg 91%
    08:00 +22°C° 0 mm 0 mps 682 mmHg 81%
    09:00 +24°C° 0 mm 0 mps 683 mmHg 71%
    10:00 +27°C° 0 mm 0 mps 684 mmHg 62%
    11:00 +29°C° 0.4 mm 1 mps 683 mmHg 63%
    12:00 +29°C° 0.4 mm 1 mps 683 mmHg 64%
    13:00 +29°C° 0.4 mm 1 mps 682 mmHg 65%
    14:00 +28°C° 1.3 mm 1 mps 682 mmHg 73%
    15:00 +26°C° 1.3 mm 1 mps 681 mmHg 81%
    16:00 +25°C° 1.3 mm 1 mps 680 mmHg 89%
    17:00 +24°C° 0.6 mm 1 mps 680 mmHg 92%
    18:00 +22°C° 0.6 mm 0 mps 681 mmHg 94%
    19:00 +21°C° 0.6 mm 0 mps 681 mmHg 97%
    20:00 +21°C° 0.7 mm 0 mps 682 mmHg 97%
    21:00 +20°C° 0.7 mm 0 mps 682 mmHg 97%
    22:00 +20°C° 0.7 mm 0 mps 683 mmHg 97%
    23:00 +20°C° 0.7 mm 0 mps 682 mmHg 97%

    3 June, Wednesday

    Time Temperature Precipitation Wind Pressure Humidity
    00:00 +20°C° 0.7 mm 0 mps 682 mmHg 96%
    01:00 +19°C° 0.7 mm 0 mps 682 mmHg 96%
    02:00 +19°C° 0 mm 0 mps 682 mmHg 96%
    03:00 +19°C° 0 mm 0 mps 681 mmHg 96%
    04:00 +19°C° 0 mm 0 mps 681 mmHg 95%
    05:00 +19°C° 0 mm 0 mps 681 mmHg 95%
    06:00 +19°C° 0 mm 0 mps 681 mmHg 94%
    07:00 +19°C° 0 mm 0 mps 681 mmHg 93%
    08:00 +21°C° 0 mm 0 mps 682 mmHg 84%
    09:00 +23°C° 0 mm 0 mps 683 mmHg 75%
    10:00 +25°C° 0 mm 0 mps 683 mmHg 65%
    11:00 +26°C° 0.1 mm 0 mps 683 mmHg 61%
    12:00 +29°C° 0.1 mm 1 mps 683 mmHg 57%
    13:00 +30°C° 0.1 mm 1 mps 682 mmHg 53%
    14:00 +29°C° 0.8 mm 1 mps 682 mmHg 62%
    15:00 +28°C° 0.8 mm 1 mps 681 mmHg 71%
    16:00 +25°C° 0.8 mm 0 mps 680 mmHg 79%
    17:00 +23°C° 0.2 mm 0 mps 680 mmHg 85%
    18:00 +22°C° 0.2 mm 0 mps 680 mmHg 90%
    19:00 +21°C° 0.2 mm 0 mps 681 mmHg 96%
    20:00 +20°C° 0.2 mm 0 mps 681 mmHg 96%
    21:00 +20°C° 0.2 mm 0 mps 681 mmHg 96%
    22:00 +20°C° 0.2 mm 0 mps 682 mmHg 96%
    23:00 +20°C° 0.4 mm 0 mps 682 mmHg 96%

    4 June, Thursday

    Time Temperature Precipitation Wind Pressure Humidity
    00:00 +20°C° 0.4 mm 0 mps 681 mmHg 96%
    01:00 +20°C° 0.4 mm 0 mps 681 mmHg 97%
    02:00 +19°C° 0.2 mm 0 mps 681 mmHg 96%
    03:00 +19°C° 0.2 mm 0 mps 681 mmHg 96%
    04:00 +19°C° 0.2 mm 0 mps 680 mmHg 96%
    05:00 +19°C° 0 mm 0 mps 680 mmHg 95%
    06:00 +19°C° 0 mm 0 mps 681 mmHg 94%
    07:00 +19°C° 0 mm 0 mps 681 mmHg 93%
    08:00 +22°C° 0 mm 0 mps 682 mmHg 81%
    09:00 +24°C° 0 mm 0 mps 683 mmHg 69%
    10:00 +29°C° 0 mm 1 mps 683 mmHg 57%
    11:00 +29°C° 0.3 mm 1 mps 683 mmHg 61%
    12:00 +29°C° 0.3 mm 1 mps 682 mmHg 64%
    13:00 +28°C° 0.3 mm 1 mps 682 mmHg 67%
    14:00 +28°C° 1.3 mm 1 mps 681 mmHg 74%
    15:00 +27°C° 1.3 mm 1 mps 680 mmHg 81%
    16:00 +26°C° 1.3 mm 1 mps 680 mmHg 89%
    17:00 +24°C° 0.8 mm 1 mps 680 mmHg 92%
    18:00 +23°C° 0.8 mm 1 mps 680 mmHg 94%
    19:00 +22°C° 0.8 mm 1 mps 680 mmHg 97%
    20:00 +22°C° 0.5 mm 1 mps 681 mmHg 97%
    21:00 +22°C° 0.5 mm 1 mps 681 mmHg 98%
    22:00 +21°C° 0.5 mm 1 mps 682 mmHg 98%
    23:00 +21°C° 0 mm 1 mps 682 mmHg 98%

    5 June, Friday

    Time Temperature Precipitation Wind Pressure Humidity
    00:00 +21°C° 0 mm 1 mps 682 mmHg 98%
    01:00 +21°C° 0 mm 1 mps 681 mmHg 98%
    02:00 +21°C° 0.1 mm 1 mps 681 mmHg 98%
    03:00 +21°C° 0.1 mm 1 mps 681 mmHg 98%
    04:00 +18°C° 0.1 mm 0 mps 681 mmHg 98%
    05:00 +19°C° 0 mm 0 mps 681 mmHg 97%
    06:00 +19°C° 0 mm 0 mps 681 mmHg 97%
    07:00 +21°C° 0 mm 1 mps 681 mmHg 96%
    08:00 +22°C° 0 mm 1 mps 682 mmHg 89%
    09:00 +24°C° 0 mm 1 mps 682 mmHg 81%
    10:00 +25°C° 0 mm 2 mps 683 mmHg 73%
    11:00 +26°C° 0 mm 2 mps 683 mmHg 70%
    12:00 +27°C° 0 mm 2 mps 682 mmHg 66%
    13:00 +27°C° 0 mm 2 mps 682 mmHg 63%
    14:00 +27°C° 0.1 mm 2 mps 682 mmHg 65%
    15:00 +26°C° 0.1 mm 2 mps 681 mmHg 66%
    16:00 +26°C° 0.1 mm 2 mps 681 mmHg 68%
    17:00 +24°C° 0 mm 2 mps 681 mmHg 75%
    18:00 +23°C° 0 mm 1 mps 681 mmHg 83%
    19:00 +21°C° 0 mm 1 mps 681 mmHg 91%
    20:00 +21°C° 0 mm 1 mps 681 mmHg 91%
    21:00 +21°C° 0 mm 1 mps 682 mmHg 91%
    22:00 +20°C° 0 mm 1 mps 682 mmHg 91%
    23:00 +20°C° 0 mm 1 mps 682 mmHg 90%
    Show more